Location: Nassau
(25.0830°N, 77.3500°W)
Time: 15:45:47
(UTC-04:00)

ISS - All Passes

Search period start: 24 August 2016 00:00
Search period end: 03 September 2016 00:00
Orbit: 402 x 406 km, 51.6° (Epoch: 25 August)

Date Brightness Start Highest point End Pass type
(mag) Time Alt. Az. Time Alt. Az. Time Alt. Az.
24 Aug - 08:41:53 10° S 08:44:21 20° SE 08:46:49 10° ENE daylight
24 Aug - 10:18:13 10° W 10:20:42 20° NW 10:23:11 10° N daylight
24 Aug - 18:27:54 10° NW 18:31:10 82° SW 18:34:25 10° SE daylight
25 Aug - 09:25:06 10° WSW 09:28:14 43° NW 09:31:23 10° NNE daylight
25 Aug - 17:35:42 10° NNW 17:38:47 37° NE 17:41:51 10° ESE daylight
26 Aug - 08:32:37 10° SW 08:35:52 70° SE 08:39:07 10° NE daylight
26 Aug - 16:43:59 10° N 16:46:18 18° NE 16:48:36 10° E daylight
26 Aug - 18:20:03 10° WNW 18:22:41 23° SW 18:25:19 10° S daylight
27 Aug - 07:40:45 10° S 07:43:33 26° SE 07:46:21 10° ENE daylight
27 Aug - 09:17:55 10° W 09:19:59 16° NW 09:22:04 10° N daylight
27 Aug - 17:27:10 10° NW 17:30:23 58° SW 17:33:34 10° SSE daylight
28 Aug - 06:50:11 10° SE 06:51:17 11° SE 06:52:24 10° ESE daylight
28 Aug - 08:24:29 10° WSW 08:27:28 32° NW 08:30:27 10° NNE daylight
28 Aug - 16:34:47 10° NNW 16:37:59 51° NE 16:41:11 10° SE daylight
29 Aug - 07:31:46 10° SW 07:35:01 83° NW 07:38:18 10° NE daylight
29 Aug - 15:42:51 10° N 15:45:29 22° NE 15:48:08 10° E daylight
29 Aug - 17:19:34 10° W 17:21:47 17° SW 17:24:00 10° SSW daylight
30 Aug - 06:39:37 10° SSW 06:42:38 36° SE 06:45:40 10° ENE daylight
30 Aug - 08:17:41 10° WNW 08:19:11 12° NW 08:20:40 10° NNW daylight
30 Aug - 14:51:48 10° NNE 14:52:53 11° NE 14:53:59 10° ENE daylight
30 Aug - 16:26:22 10° WNW 16:29:28 41° SW 16:32:33 10° SSE daylight
31 Aug - 05:48:21 10° SSE 05:50:19 15° SE 05:52:18 10° E visible
31 Aug - 07:23:49 10° WSW 07:26:35 25° NW 07:29:21 10° NNE daylight
31 Aug - 15:33:48 10° NW 15:37:04 72° NE 15:40:19 10° SE daylight
01 Sep - 06:30:51 10° SW 06:34:04 60° NW 06:37:18 10° NNE daylight
01 Sep - 14:41:40 10° NNW 14:44:34 28° NE 14:47:27 10° ESE daylight
01 Sep - 16:19:11 10° W 16:20:46 13° SW 16:22:21 10° SSW daylight
02 Sep - 05:38:28 10° SSW 05:41:38 49° SE 05:44:47 10° NE visible
02 Sep - 13:50:07 10° N 13:51:57 14° NE 13:53:47 10° ENE daylight
02 Sep - 15:25:31 10° WNW 15:28:26 30° SW 15:31:20 10° S daylight
